| time (UTC) | temp C | wind direction | speed KPH | gust KPH | rain 1hr cm | rain 24hr cm | rain mn cm | humidity % | barometer mb |
| 20260506190002 | 17 | 13 | 0.0 | 0.0 | 0.00 | 0.00 | 0.00 | 65 | 1007.8 |
| 20260506185504 | 17 | 13 | 0.0 | 0.0 | 0.00 | 0.00 | 0.00 | 63 | 1007.9 |
| 20260506185003 | 17 | 13 | 0.0 | 0.0 | 0.00 | 0.00 | 0.00 | 64 | 1008.0 |
| 20260506184503 | 18 | 13 | 0.0 | 0.0 | 0.00 | 0.00 | 0.00 | 62 | 1008.0 |
| 20260506184003 | 18 | 13 | 0.0 | 0.0 | 0.00 | 0.00 | 0.00 | 61 | 1007.8 |
| 20260506183504 | 18 | 13 | 0.0 | 1.6 | 0.00 | 0.00 | 0.00 | 59 | 1007.8 |
| 20260506183005 | 18 | 14 | 0.0 | 1.6 | 0.00 | 0.00 | 0.00 | 60 | 1008.0 |
| 20260506182503 | 18 | 33 | 0.0 | 0.0 | 0.00 | 0.00 | 0.00 | 61 | 1007.9 |
| 20260506182005 | 18 | 33 | 0.0 | 0.0 | 0.00 | 0.00 | 0.00 | 60 | 1007.7 |
| 20260506181504 | 18 | 33 | 0.0 | 0.0 | 0.00 | 0.00 | 0.00 | 59 | 1007.6 |
| 20260506181004 | 18 | 33 | 0.0 | 0.0 | 0.00 | 0.00 | 0.00 | 58 | 1007.7 |
| 20260506180502 | 19 | 33 | 0.0 | 0.0 | 0.00 | 0.00 | 0.00 | 56 | 1007.7 |
| 20260506180005 | 20 | 33 | 0.0 | 0.0 | 0.00 | 0.00 | 0.00 | 55 | 1007.6 |
| 20260506175502 | 20 | 33 | 0.0 | 0.0 | 0.00 | 0.00 | 0.00 | 53 | 1007.7 |
| 20260506175004 | 20 | 38 | 0.0 | 0.0 | 0.00 | 0.00 | 0.00 | 53 | 1007.7 |
| 20260506174504 | 21 | 38 | 0.0 | 0.0 | 0.00 | 0.00 | 0.00 | 51 | 1007.6 |
| 20260506174004 | 21 | 54 | 0.0 | 1.6 | 0.00 | 0.00 | 0.00 | 48 | 1007.7 |
| 20260506173506 | 22 | 36 | 0.0 | 1.6 | 0.00 | 0.00 | 0.00 | 46 | 1007.8 |
| 20260506173002 | 22 | 354 | 0.0 | 0.0 | 0.00 | 0.00 | 0.00 | 47 | 1007.7 |
| 20260506172503 | 22 | 354 | 0.0 | 1.6 | 0.00 | 0.00 | 0.00 | 46 | 1007.6 |
| 20260506172003 | 22 | 354 | 0.0 | 1.6 | 0.00 | 0.00 | 0.00 | 46 | 1007.5 |
| 20260506171504 | 22 | 355 | 0.0 | 1.6 | 0.00 | 0.00 | 0.00 | 46 | 1007.7 |
| 20260506171002 | 22 | 16 | 0.0 | 1.6 | 0.00 | 0.00 | 0.00 | 46 | 1007.6 |
| 20260506170503 | 22 | 63 | 0.0 | 0.0 | 0.00 | 0.00 | 0.00 | 45 | 1007.8 |
| 20260506170006 | 22 | 43 | 1.6 | 3.2 | 0.00 | 0.00 | 0.00 | 44 | 1007.8 |
| 20260506165503 | 22 | 25 | 1.6 | 3.2 | 0.00 | 0.00 | 0.00 | 44 | 1007.7 |
| 20260506165004 | 22 | 54 | 3.2 | 4.8 | 0.00 | 0.00 | 0.00 | 44 | 1007.8 |
| 20260506164503 | 22 | 90 | 3.2 | 4.8 | 0.00 | 0.00 | 0.00 | 44 | 1007.7 |
| 20260506164003 | 22 | 50 | 1.6 | 1.6 | 0.00 | 0.00 | 0.00 | 44 | 1007.7 |
| 20260506163502 | 22 | 65 | 0.0 | 3.2 | 0.00 | 0.00 | 0.00 | 44 | 1007.8 |
| 20260506163004 | 22 | 61 | 0.0 | 3.2 | 0.00 | 0.00 | 0.00 | 44 | 1007.7 |
| 20260506162503 | 22 | 54 | 0.0 | 4.8 | 0.00 | 0.00 | 0.00 | 43 | 1007.8 |
| 20260506162003 | 22 | 97 | 3.2 | 8.0 | 0.00 | 0.00 | 0.00 | 43 | 1007.8 |
| 20260506161503 | 22 | 35 | 1.6 | 3.2 | 0.00 | 0.00 | 0.00 | 43 | 1007.9 |
| 20260506161002 | 22 | 69 | 4.8 | 8.0 | 0.00 | 0.00 | 0.00 | 42 | 1007.8 |
| 20260506160505 | 22 | 129 | 1.6 | 3.2 | 0.00 | 0.00 | 0.00 | 43 | 1007.7 |
| 20260506160003 | 23 | 118 | 1.6 | 3.2 | 0.00 | 0.00 | 0.00 | 44 | 1007.9 |
| 20260506155503 | 23 | 4 | 4.8 | 4.8 | 0.00 | 0.00 | 0.00 | 42 | 1008.0 |
| 20260506155005 | 23 | 58 | 1.6 | 8.0 | 0.00 | 0.00 | 0.00 | 41 | 1008.1 |
| 20260506154503 | 23 | 14 | 4.8 | 9.7 | 0.00 | 0.00 | 0.00 | 40 | 1008.1 |
| 20260506154003 | 23 | 89 | 9.7 | 11.3 | 0.00 | 0.00 | 0.00 | 40 | 1008.4 |
| 20260506153503 | 24 | 86 | 6.4 | 9.7 | 0.00 | 0.00 | 0.00 | 38 | 1008.3 |
| 20260506153004 | 23 | 346 | 4.8 | 11.3 | 0.00 | 0.00 | 0.00 | 38 | 1008.1 |
| 20260506152503 | 23 | 71 | 9.7 | 16.1 | 0.00 | 0.00 | 0.00 | 39 | 1008.1 |
| 20260506152002 | 23 | 25 | 6.4 | 12.9 | 0.00 | 0.00 | 0.00 | 38 | 1008.3 |
| 20260506151507 | 23 | 97 | 6.4 | 8.0 | 0.00 | 0.00 | 0.00 | 38 | 1008.2 |
| 20260506151003 | 23 | 94 | 1.6 | 4.8 | 0.00 | 0.00 | 0.00 | 39 | 1008.3 |
| 20260506150503 | 24 | 350 | 8.0 | 11.3 | 0.00 | 0.00 | 0.00 | 37 | 1008.2 |
| 20260506150003 | 23 | 67 | 4.8 | 11.3 | 0.00 | 0.00 | 0.00 | 38 | 1008.3 |
| 20260506145504 | 25 | 352 | 3.2 | 14.5 | 0.00 | 0.00 | 0.00 | 36 | 1008.3 |
| 20260506145004 | 25 | 99 | 4.8 | 11.3 | 0.00 | 0.00 | 0.00 | 36 | 1008.3 |
| 20260506144504 | 25 | 64 | 6.4 | 12.9 | 0.00 | 0.00 | 0.00 | 36 | 1008.2 |
| 20260506144004 | 25 | 98 | 9.7 | 20.9 | 0.00 | 0.00 | 0.00 | 36 | 1008.3 |
| 20260506143503 | 26 | 359 | 12.9 | 17.7 | 0.00 | 0.00 | 0.00 | 35 | 1008.4 |
| 20260506143003 | 25 | 44 | 6.4 | 8.0 | 0.00 | 0.00 | 0.00 | 36 | 1008.3 |
| 20260506142502 | 25 | 103 | 8.0 | 14.5 | 0.00 | 0.00 | 0.00 | 38 | 1008.4 |
| 20260506142003 | 24 | 90 | 6.4 | 12.9 | 0.00 | 0.00 | 0.00 | 38 | 1008.3 |
| 20260506141503 | 24 | 82 | 8.0 | 12.9 | 0.00 | 0.00 | 0.00 | 39 | 1008.4 |
| 20260506141005 | 24 | 132 | 4.8 | 4.8 | 0.00 | 0.00 | 0.00 | 40 | 1008.3 |
| 20260506140503 | 23 | 77 | 6.4 | 12.9 | 0.00 | 0.00 | 0.00 | 40 | 1008.6 |
| 20260506140003 | 23 | 38 | 6.4 | 14.5 | 0.00 | 0.00 | 0.00 | 40 | 1008.5 |
| 20260506135503 | 24 | 100 | 6.4 | 11.3 | 0.00 | 0.00 | 0.00 | 40 | 1008.4 |
| 20260506135004 | 24 | 5 | 6.4 | 14.5 | 0.00 | 0.00 | 0.00 | 39 | 1008.3 |
| 20260506134503 | 26 | 107 | 8.0 | 11.3 | 0.00 | 0.00 | 0.00 | 38 | 1008.4 |
| 20260506134002 | 24 | 66 | 6.4 | 9.7 | 0.00 | 0.00 | 0.00 | 39 | 1008.4 |
| 20260506133503 | 24 | 30 | 12.9 | 17.7 | 0.00 | 0.00 | 0.00 | 37 | 1008.4 |
| 20260506133002 | 25 | 84 | 1.6 | 11.3 | 0.00 | 0.00 | 0.00 | 38 | 1008.5 |
| 20260506132502 | 25 | 36 | 6.4 | 12.9 | 0.00 | 0.00 | 0.00 | 39 | 1008.5 |
| 20260506132002 | 25 | 68 | 6.4 | 16.1 | 0.00 | 0.00 | 0.00 | 40 | 1008.7 |
| 20260506131503 | 24 | 28 | 4.8 | 11.3 | 0.00 | 0.00 | 0.00 | 40 | 1008.5 |
| 20260506131005 | 23 | 42 | 4.8 | 11.3 | 0.00 | 0.00 | 0.00 | 42 | 1008.6 |
| 20260506130503 | 24 | 19 | 4.8 | 16.1 | 0.00 | 0.00 | 0.00 | 42 | 1008.5 |
| 20260506130005 | 25 | 35 | 6.4 | 16.1 | 0.00 | 0.00 | 0.00 | 41 | 1008.6 |
| 20260506125504 | 25 | 89 | 8.0 | 20.9 | 0.00 | 0.00 | 0.00 | 39 | 1008.5 |
| 20260506125004 | 25 | 55 | 9.7 | 14.5 | 0.00 | 0.00 | 0.00 | 39 | 1008.6 |
| 20260506124503 | 25 | 26 | 14.5 | 17.7 | 0.00 | 0.00 | 0.00 | 39 | 1008.7 |
| 20260506124004 | 25 | 344 | 3.2 | 16.1 | 0.00 | 0.00 | 0.00 | 41 | 1008.6 |
| 20260506123503 | 25 | 74 | 6.4 | 14.5 | 0.00 | 0.00 | 0.00 | 41 | 1008.8 |
| 20260506123002 | 25 | 61 | 6.4 | 17.7 | 0.00 | 0.00 | 0.00 | 39 | 1008.9 |
| 20260506122502 | 24 | 108 | 6.4 | 16.1 | 0.00 | 0.00 | 0.00 | 39 | 1008.7 |
| 20260506122004 | 24 | 71 | 12.9 | 16.1 | 0.00 | 0.00 | 0.00 | 39 | 1008.8 |
| 20260506121502 | 24 | 340 | 4.8 | 16.1 | 0.00 | 0.00 | 0.00 | 40 | 1008.5 |
| 20260506121005 | 24 | 42 | 4.8 | 17.7 | 0.00 | 0.00 | 0.00 | 42 | 1008.6 |
| 20260506120503 | 25 | 321 | 4.8 | 14.5 | 0.00 | 0.00 | 0.00 | 43 | 1008.7 |
| 20260506120003 | 25 | 348 | 1.6 | 12.9 | 0.00 | 0.00 | 0.00 | 43 | 1008.7 |
| 20260506115503 | 24 | 18 | 8.0 | 17.7 | 0.00 | 0.00 | 0.00 | 42 | 1008.4 |
| 20260506115004 | 24 | 11 | 8.0 | 16.1 | 0.00 | 0.00 | 0.00 | 43 | 1008.5 |
| 20260506114505 | 23 | 259 | 4.8 | 11.3 | 0.00 | 0.00 | 0.00 | 45 | 1008.5 |
| 20260506114003 | 24 | 23 | 4.8 | 14.5 | 0.00 | 0.00 | 0.00 | 43 | 1008.6 |
| 20260506113503 | 24 | 27 | 6.4 | 17.7 | 0.00 | 0.00 | 0.00 | 42 | 1008.5 |
| 20260506113003 | 24 | 55 | 4.8 | 11.3 | 0.00 | 0.00 | 0.00 | 44 | 1008.5 |
| 20260506112503 | 24 | 341 | 8.0 | 11.3 | 0.00 | 0.00 | 0.00 | 43 | 1008.7 |
| 20260506112003 | 23 | 45 | 4.8 | 20.9 | 0.00 | 0.00 | 0.00 | 44 | 1008.7 |
| 20260506111502 | 23 | 1 | 12.9 | 20.9 | 0.00 | 0.00 | 0.00 | 44 | 1008.8 |
| 20260506111002 | 23 | 355 | 8.0 | 12.9 | 0.00 | 0.00 | 0.00 | 45 | 1008.8 |
| 20260506110505 | 23 | 94 | 8.0 | 17.7 | 0.00 | 0.00 | 0.00 | 45 | 1008.9 |
| 20260506110002 | 23 | 32 | 9.7 | 16.1 | 0.00 | 0.00 | 0.00 | 45 | 1008.9 |
| 20260506105503 | 22 | 199 | 6.4 | 16.1 | 0.00 | 0.00 | 0.00 | 45 | 1008.9 |
| 20260506105004 | 22 | 319 | 8.0 | 12.9 | 0.00 | 0.00 | 0.00 | 47 | 1008.8 |
| 20260506104504 | 22 | 70 | 11.3 | 14.5 | 0.00 | 0.00 | 0.00 | 46 | 1008.7 |
| 20260506104003 | 22 | 57 | 4.8 | 9.7 | 0.00 | 0.00 | 0.00 | 47 | 1008.8 |
| 20260506103502 | 23 | 13 | 12.9 | 22.5 | 0.00 | 0.00 | 0.00 | 45 | 1008.6 |
| 20260506103003 | 22 | 32 | 6.4 | 14.5 | 0.00 | 0.00 | 0.00 | 47 | 1008.8 |
| 20260506102502 | 22 | 313 | 11.3 | 16.1 | 0.00 | 0.00 | 0.00 | 49 | 1008.7 |
| 20260506102003 | 22 | 95 | 4.8 | 9.7 | 0.00 | 0.00 | 0.00 | 49 | 1008.7 |
| 20260506101503 | 22 | 22 | 9.7 | 16.1 | 0.00 | 0.00 | 0.00 | 47 | 1009.0 |
| 20260506101003 | 22 | 55 | 9.7 | 16.1 | 0.00 | 0.00 | 0.00 | 49 | 1009.0 |
| 20260506100504 | 22 | 5 | 4.8 | 9.7 | 0.00 | 0.00 | 0.00 | 49 | 1008.8 |
| 20260506100005 | 21 | 341 | 8.0 | 16.1 | 0.00 | 0.00 | 0.00 | 49 | 1008.8 |
| 20260506095503 | 21 | 26 | 4.8 | 12.9 | 0.00 | 0.00 | 0.00 | 49 | 1008.7 |
| 20260506095004 | 21 | 58 | 1.6 | 8.0 | 0.00 | 0.00 | 0.00 | 50 | 1008.6 |
| 20260506094504 | 21 | 3 | 3.2 | 4.8 | 0.00 | 0.00 | 0.00 | 51 | 1008.8 |
| 20260506094004 | 21 | 352 | 4.8 | 17.7 | 0.00 | 0.00 | 0.00 | 48 | 1008.6 |
| 20260506093504 | 22 | 23 | 6.4 | 16.1 | 0.00 | 0.00 | 0.00 | 46 | 1008.4 |
| 20260506093003 | 22 | 96 | 4.8 | 14.5 | 0.00 | 0.00 | 0.00 | 47 | 1008.4 |
| 20260506092503 | 22 | 255 | 1.6 | 4.8 | 0.00 | 0.00 | 0.00 | 47 | 1008.7 |
| 20260506092004 | 22 | 84 | 4.8 | 8.0 | 0.00 | 0.00 | 0.00 | 49 | 1008.4 |
| 20260506091504 | 22 | 56 | 6.4 | 8.0 | 0.00 | 0.00 | 0.00 | 48 | 1008.6 |
| 20260506091003 | 21 | 65 | 3.2 | 9.7 | 0.00 | 0.00 | 0.00 | 50 | 1008.5 |
| 20260506090504 | 21 | 42 | 3.2 | 11.3 | 0.00 | 0.00 | 0.00 | 50 | 1008.5 |
| 20260506090004 | 21 | 46 | 4.8 | 11.3 | 0.00 | 0.00 | 0.00 | 50 | 1008.3 |
| 20260506085503 | 21 | 15 | 3.2 | 20.9 | 0.00 | 0.00 | 0.00 | 51 | 1008.3 |
| 20260506085003 | 21 | 65 | 4.8 | 8.0 | 0.00 | 0.00 | 0.00 | 51 | 1008.3 |
| 20260506084503 | 21 | 205 | 3.2 | 9.7 | 0.00 | 0.00 | 0.00 | 52 | 1008.3 |
| 20260506084003 | 21 | 108 | 4.8 | 8.0 | 0.00 | 0.00 | 0.00 | 54 | 1008.3 |
| 20260506083502 | 21 | 36 | 6.4 | 8.0 | 0.00 | 0.00 | 0.00 | 53 | 1008.4 |
| 20260506083004 | 20 | 11 | 4.8 | 9.7 | 0.00 | 0.00 | 0.00 | 54 | 1008.3 |
| 20260506082503 | 20 | 23 | 1.6 | 9.7 | 0.00 | 0.00 | 0.00 | 55 | 1008.6 |
| 20260506082005 | 20 | 85 | 3.2 | 12.9 | 0.00 | 0.00 | 0.00 | 54 | 1008.3 |
| 20260506081502 | 20 | 48 | 1.6 | 9.7 | 0.00 | 0.00 | 0.00 | 55 | 1008.4 |
| 20260506081002 | 20 | 357 | 4.8 | 9.7 | 0.00 | 0.00 | 0.00 | 56 | 1008.3 |
| 20260506080503 | 20 | 81 | 4.8 | 11.3 | 0.00 | 0.00 | 0.00 | 55 | 1008.4 |
| 20260506073504 | 19 | 341 | 3.2 | 11.3 | 0.00 | 0.00 | 0.00 | 57 | 1008.2 |
| 20260506073003 | 19 | 5 | 8.0 | 12.9 | 0.00 | 0.00 | 0.00 | 56 | 1008.3 |
| 20260506072503 | 19 | 151 | 6.4 | 11.3 | 0.00 | 0.00 | 0.00 | 57 | 1008.4 |
| 20260506072005 | 18 | 17 | 9.7 | 12.9 | 0.00 | 0.00 | 0.00 | 58 | 1008.1 |
| 20260506071503 | 18 | 356 | 9.7 | 12.9 | 0.00 | 0.00 | 0.00 | 58 | 1008.3 |
| 20260506071003 | 19 | 2 | 4.8 | 12.9 | 0.00 | 0.00 | 0.00 | 58 | 1008.2 |
| 20260506070504 | 18 | 118 | 4.8 | 8.0 | 0.00 | 0.00 | 0.00 | 59 | 1008.4 |
| 20260506062503 | 17 | 74 | 1.6 | 9.7 | 0.00 | 0.00 | 0.00 | 62 | 1007.8 |
| 20260506062005 | 17 | 46 | 9.7 | 16.1 | 0.00 | 0.00 | 0.00 | 62 | 1007.7 |
| 20260506061504 | 17 | 42 | 6.4 | 14.5 | 0.00 | 0.00 | 0.00 | 62 | 1007.8 |
| 20260506061004 | 17 | 61 | 4.8 | 14.5 | 0.00 | 0.00 | 0.00 | 63 | 1007.6 |
| 20260506060502 | 16 | 42 | 4.8 | 12.9 | 0.00 | 0.00 | 0.00 | 64 | 1007.9 |
| 20260506051004 | 16 | 101 | 6.4 | 14.5 | 0.00 | 0.00 | 0.00 | 65 | 1007.8 |
| 20260506050503 | 16 | 82 | 3.2 | 12.9 | 0.00 | 0.00 | 0.00 | 65 | 1007.7 |
| 20260506045003 | 15 | 30 | 6.4 | 11.3 | 0.00 | 0.00 | 0.00 | 66 | 1007.8 |
| 20260506044503 | 15 | 34 | 9.7 | 12.9 | 0.00 | 0.00 | 0.00 | 66 | 1007.8 |
| 20260506044004 | 15 | 16 | 3.2 | 11.3 | 0.00 | 0.00 | 0.00 | 66 | 1007.8 |
| 20260506043504 | 15 | 77 | 4.8 | 8.0 | 0.00 | 0.00 | 0.00 | 66 | 1007.8 |
| 20260506043003 | 15 | 25 | 0.0 | 9.7 | 0.00 | 0.00 | 0.00 | 67 | 1007.8 |
| 20260506042502 | 14 | 70 | 3.2 | 4.8 | 0.00 | 0.00 | 0.00 | 67 | 1007.8 |
| 20260506042003 | 14 | 53 | 3.2 | 8.0 | 0.00 | 0.00 | 0.00 | 67 | 1007.8 |
| 20260506041505 | 14 | 61 | 0.0 | 3.2 | 0.00 | 0.00 | 0.00 | 68 | 1007.9 |
| 20260506041004 | 14 | 19 | 0.0 | 1.6 | 0.00 | 0.00 | 0.00 | 68 | 1007.9 |
| 20260506040502 | 14 | 53 | 0.0 | 8.0 | 0.00 | 0.00 | 0.00 | 67 | 1007.9 |
| 20260506040006 | 14 | 355 | 0.0 | 8.0 | 0.00 | 0.00 | 0.00 | 67 | 1007.8 |
| 20260506035504 | 14 | 30 | 1.6 | 4.8 | 0.00 | 0.00 | 0.00 | 66 | 1007.8 |
| 20260506035004 | 14 | 32 | 1.6 | 4.8 | 0.00 | 0.00 | 0.00 | 67 | 1007.8 |
| 20260506034504 | 14 | 47 | 1.6 | 8.0 | 0.00 | 0.00 | 0.00 | 67 | 1008.0 |
| 20260506034004 | 13 | 59 | 1.6 | 9.7 | 0.00 | 0.00 | 0.00 | 67 | 1007.8 |
| 20260506033503 | 13 | 60 | 0.0 | 3.2 | 0.00 | 0.00 | 0.00 | 69 | 1007.8 |
| 20260506033003 | 12 | 9 | 0.0 | 0.0 | 0.00 | 0.00 | 0.00 | 71 | 1007.7 |
| 20260506032503 | 12 | 77 | 1.6 | 4.8 | 0.00 | 0.00 | 0.00 | 71 | 1008.0 |
| 20260506032002 | 12 | 18 | 0.0 | 1.6 | 0.00 | 0.00 | 0.00 | 73 | 1007.9 |
| 20260506031503 | 12 | 15 | 1.6 | 1.6 | 0.00 | 0.00 | 0.00 | 73 | 1007.9 |
| 20260506031004 | 11 | 328 | 1.6 | 3.2 | 0.00 | 0.00 | 0.00 | 76 | 1007.8 |
| 20260506030503 | 8 | 318 | 0.0 | 1.6 | 0.00 | 0.00 | 0.00 | 85 | 1007.8 |
| 20260506030003 | 7 | 244 | 0.0 | 0.0 | 0.00 | 0.00 | 0.00 | 89 | 1007.7 |
| 20260506025503 | 7 | 269 | 0.0 | 1.6 | 0.00 | 0.00 | 0.00 | 89 | 1008.0 |
| 20260506025003 | 6 | 323 | 0.0 | 0.0 | 0.00 | 0.00 | 0.00 | 88 | 1007.9 |
| 20260506024505 | 7 | 323 | 0.0 | 0.0 | 0.00 | 0.00 | 0.00 | 88 | 1007.9 |
| 20260506024003 | 7 | 324 | 0.0 | 0.0 | 0.00 | 0.00 | 0.00 | 88 | 1007.8 |
| 20260506023505 | 7 | 333 | 0.0 | 0.0 | 0.00 | 0.00 | 0.00 | 87 | 1007.8 |
| 20260506023004 | 7 | 350 | 0.0 | 0.0 | 0.00 | 0.00 | 0.00 | 87 | 1007.9 |
| 20260506022502 | 7 | 356 | 0.0 | 0.0 | 0.00 | 0.00 | 0.00 | 86 | 1007.8 |
| 20260506022005 | 7 | 356 | 0.0 | 0.0 | 0.00 | 0.00 | 0.00 | 85 | 1008.1 |
| 20260506021504 | 8 | 357 | 0.0 | 0.0 | 0.00 | 0.00 | 0.00 | 85 | 1008.0 |
| 20260506021003 | 8 | 9 | 0.0 | 0.0 | 0.00 | 0.00 | 0.00 | 84 | 1008.0 |
| 20260506020505 | 8 | 10 | 0.0 | 0.0 | 0.00 | 0.00 | 0.00 | 84 | 1007.9 |
| 20260506020005 | 8 | 10 | 0.0 | 0.0 | 0.00 | 0.00 | 0.00 | 83 | 1007.9 |
| 20260506015506 | 8 | 10 | 0.0 | 0.0 | 0.00 | 0.00 | 0.00 | 83 | 1008.0 |
| 20260506015005 | 8 | 10 | 0.0 | 0.0 | 0.00 | 0.00 | 0.00 | 83 | 1008.2 |
| 20260506014504 | 8 | 10 | 0.0 | 0.0 | 0.00 | 0.00 | 0.00 | 84 | 1007.9 |
| 20260506014003 | 8 | 10 | 0.0 | 0.0 | 0.00 | 0.00 | 0.00 | 84 | 1008.1 |
| 20260506013503 | 8 | 10 | 0.0 | 0.0 | 0.00 | 0.00 | 0.00 | 83 | 1008.0 |
| 20260506013003 | 8 | 10 | 0.0 | 0.0 | 0.00 | 0.00 | 0.00 | 81 | 1007.9 |
| 20260506012508 | 9 | 10 | 0.0 | 0.0 | 0.00 | 0.00 | 0.00 | 80 | 1008.0 |
| 20260506012003 | 9 | 10 | 0.0 | 0.0 | 0.00 | 0.00 | 0.00 | 79 | 1007.9 |
| 20260506011504 | 9 | 10 | 0.0 | 0.0 | 0.00 | 0.00 | 0.00 | 78 | 1007.7 |
| 20260506011005 | 10 | 10 | 0.0 | 0.0 | 0.00 | 0.00 | 0.00 | 77 | 1007.9 |
| 20260506010505 | 10 | 10 | 0.0 | 0.0 | 0.00 | 0.00 | 0.00 | 76 | 1007.9 |
| 20260506010003 | 10 | 10 | 0.0 | 0.0 | 0.00 | 0.00 | 0.00 | 75 | 1007.9 |
| 20260506005504 | 10 | 10 | 0.0 | 0.0 | 0.00 | 0.00 | 0.00 | 73 | 1007.9 |
| 20260506005004 | 11 | 10 | 0.0 | 0.0 | 0.00 | 0.00 | 0.00 | 72 | 1007.9 |
| 20260506004503 | 11 | 10 | 0.0 | 0.0 | 0.00 | 0.00 | 0.00 | 71 | 1007.9 |
| 20260506004004 | 11 | 10 | 0.0 | 0.0 | 0.00 | 0.00 | 0.00 | 69 | 1007.9 |
| 20260506003502 | 12 | 10 | 0.0 | 0.0 | 0.00 | 0.00 | 0.00 | 68 | 1007.9 |
| 20260506003002 | 12 | 10 | 0.0 | 0.0 | 0.00 | 0.00 | 0.00 | 68 | 1008.0 |
| 20260506002503 | 12 | 95 | 0.0 | 0.0 | 0.00 | 0.00 | 0.00 | 66 | 1008.0 |
| 20260506002003 | 12 | 95 | 0.0 | 0.0 | 0.00 | 0.00 | 0.00 | 64 | 1008.2 |
| 20260506001504 | 13 | 83 | 0.0 | 0.0 | 0.00 | 0.00 | 0.00 | 64 | 1008.1 |
| 20260506001004 | 14 | 357 | 0.0 | 0.0 | 0.00 | 0.00 | 0.00 | 59 | 1008.1 |
| 20260506000503 | 15 | 357 | 0.0 | 0.0 | 0.00 | 0.00 | 0.00 | 56 | 1008.1 |
| 20260506000003 | 16 | 30 | 0.0 | 0.0 | 0.00 | 0.00 | 0.00 | 53 | 1008.0 |
| 20260505235503 | 16 | 56 | 0.0 | 1.6 | 0.00 | 0.00 | 0.00 | 51 | 1008.0 |
| 20260505235003 | 16 | 46 | 0.0 | 0.0 | 0.00 | 0.00 | 0.00 | 51 | 1008.1 |
| 20260505234505 | 17 | 62 | 0.0 | 3.2 | 0.00 | 0.00 | 0.00 | 50 | 1008.0 |
| 20260505234003 | 17 | 9 | 3.2 | 3.2 | 0.00 | 0.00 | 0.00 | 50 | 1008.1 |
| 20260505233503 | 17 | 1 | 4.8 | 11.3 | 0.00 | 0.00 | 0.00 | 49 | 1008.1 |
| 20260505233003 | 17 | 9 | 1.6 | 8.0 | 0.00 | 0.00 | 0.00 | 50 | 1008.0 |
| 20260505232502 | 17 | 338 | 0.0 | 4.8 | 0.00 | 0.00 | 0.00 | 51 | 1008.2 |
| 20260505232003 | 17 | 334 | 1.6 | 8.0 | 0.00 | 0.00 | 0.00 | 51 | 1008.2 |
| 20260505231504 | 16 | 330 | 4.8 | 9.7 | 0.00 | 0.00 | 0.00 | 51 | 1008.2 |
| 20260505231003 | 16 | 349 | 3.2 | 8.0 | 0.00 | 0.00 | 0.00 | 53 | 1008.2 |
| 20260505230502 | 15 | 328 | 1.6 | 3.2 | 0.00 | 0.00 | 0.00 | 55 | 1008.3 |
| 20260505230004 | 15 | 345 | 1.6 | 3.2 | 0.00 | 0.00 | 0.00 | 56 | 1008.3 |
| 20260505225502 | 15 | 351 | 0.0 | 1.6 | 0.00 | 0.00 | 0.00 | 57 | 1008.4 |
| 20260505225002 | 15 | 329 | 0.0 | 0.0 | 0.00 | 0.00 | 0.00 | 55 | 1008.3 |
| 20260505224503 | 16 | 330 | 0.0 | 0.0 | 0.00 | 0.00 | 0.00 | 53 | 1008.4 |
| 20260505224003 | 17 | 358 | 0.0 | 1.6 | 0.00 | 0.00 | 0.00 | 51 | 1008.3 |
| 20260505223503 | 17 | 326 | 0.0 | 1.6 | 0.00 | 0.00 | 0.00 | 50 | 1008.4 |
| 20260505223002 | 17 | 357 | 0.0 | 3.2 | 0.00 | 0.00 | 0.00 | 49 | 1008.5 |
| 20260505222504 | 17 | 340 | 0.0 | 1.6 | 0.00 | 0.00 | 0.00 | 49 | 1008.3 |
| 20260505222004 | 18 | 347 | 1.6 | 3.2 | 0.00 | 0.00 | 0.00 | 48 | 1008.5 |
| 20260505221505 | 18 | 345 | 0.0 | 3.2 | 0.00 | 0.00 | 0.00 | 47 | 1008.7 |
| 20260505221003 | 18 | 6 | 1.6 | 8.0 | 0.00 | 0.00 | 0.00 | 47 | 1008.7 |
| 20260505220003 | 18 | 6 | 1.6 | 8.0 | 0.00 | 0.00 | 0.00 | 46 | 1008.7 |
| 20260505215505 | 18 | 52 | 4.8 | 8.0 | 0.00 | 0.00 | 0.00 | 46 | 1008.5 |
| 20260505215003 | 18 | 53 | 6.4 | 16.1 | 0.00 | 0.00 | 0.00 | 46 | 1008.8 |
| 20260505214504 | 18 | 5 | 0.0 | 3.2 | 0.00 | 0.00 | 0.00 | 46 | 1008.8 |
| 20260505214004 | 18 | 350 | 1.6 | 4.8 | 0.00 | 0.00 | 0.00 | 46 | 1008.8 |
| 20260505213504 | 18 | 82 | 0.0 | 1.6 | 0.00 | 0.00 | 0.00 | 46 | 1008.7 |
| 20260505213005 | 18 | 11 | 1.6 | 4.8 | 0.00 | 0.00 | 0.00 | 45 | 1008.5 |
| 20260505212503 | 18 | 8 | 1.6 | 3.2 | 0.00 | 0.00 | 0.00 | 45 | 1008.6 |
| 20260505212005 | 18 | 86 | 0.0 | 1.6 | 0.00 | 0.00 | 0.00 | 45 | 1008.7 |
| 20260505211502 | 18 | 267 | 1.6 | 4.8 | 0.00 | 0.00 | 0.00 | 45 | 1008.6 |
| 20260505211004 | 18 | 343 | 4.8 | 8.0 | 0.00 | 0.00 | 0.00 | 45 | 1008.5 |
| 20260505210503 | 17 | 9 | 4.8 | 8.0 | 0.00 | 0.00 | 0.00 | 45 | 1008.6 |
| 20260505210002 | 17 | 15 | 0.0 | 3.2 | 0.00 | 0.00 | 0.00 | 46 | 1008.5 |
| 20260505205502 | 17 | 312 | 0.0 | 0.0 | 0.00 | 0.00 | 0.00 | 46 | 1008.5 |
| 20260505205002 | 17 | 70 | 0.0 | 1.6 | 0.00 | 0.00 | 0.00 | 46 | 1008.6 |
| 20260505204503 | 15 | 37 | 0.0 | 1.6 | 0.00 | 0.00 | 0.00 | 50 | 1008.5 |
| 20260505204003 | 13 | 349 | 0.0 | 1.6 | 0.00 | 0.00 | 0.00 | 55 | 1008.5 |
| 20260505203505 | 12 | 336 | 0.0 | 0.0 | 0.00 | 0.00 | 0.00 | 59 | 1008.6 |
| 20260505203006 | 11 | 325 | 0.0 | 0.0 | 0.00 | 0.00 | 0.00 | 63 | 1008.6 |
| 20260505202503 | 12 | 325 | 0.0 | 0.0 | 0.00 | 0.00 | 0.00 | 63 | 1008.6 |
| 20260505202004 | 12 | 325 | 0.0 | 0.0 | 0.00 | 0.00 | 0.00 | 60 | 1008.5 |
| 20260505201503 | 12 | 325 | 0.0 | 0.0 | 0.00 | 0.00 | 0.00 | 59 | 1008.6 |
| 20260505201005 | 12 | 325 | 0.0 | 0.0 | 0.00 | 0.00 | 0.00 | 59 | 1008.5 |
| 20260505200503 | 12 | 325 | 0.0 | 0.0 | 0.00 | 0.00 | 0.00 | 58 | 1008.4 |
| 20260505200004 | 12 | 325 | 0.0 | 0.0 | 0.00 | 0.00 | 0.00 | 58 | 1008.6 |
| 20260505195503 | 12 | 325 | 0.0 | 0.0 | 0.00 | 0.00 | 0.00 | 57 | 1008.4 |
| 20260505195003 | 12 | 325 | 0.0 | 0.0 | 0.00 | 0.00 | 0.00 | 56 | 1008.6 |
| 20260505194504 | 13 | 325 | 0.0 | 0.0 | 0.00 | 0.00 | 0.00 | 55 | 1008.3 |
| 20260505194003 | 12 | 325 | 0.0 | 0.0 | 0.00 | 0.00 | 0.00 | 53 | 1008.4 |
| 20260505193504 | 12 | 325 | 0.0 | 0.0 | 0.00 | 0.00 | 0.00 | 54 | 1008.7 |
| 20260505193003 | 12 | 325 | 0.0 | 0.0 | 0.00 | 0.00 | 0.00 | 56 | 1008.6 |
| 20260505192504 | 12 | 325 | 0.0 | 0.0 | 0.00 | 0.00 | 0.00 | 56 | 1008.5 |
| 20260505192003 | 13 | 325 | 0.0 | 0.0 | 0.00 | 0.00 | 0.00 | 56 | 1008.6 |
| 20260505191502 | 13 | 325 | 0.0 | 0.0 | 0.00 | 0.00 | 0.00 | 54 | 1008.6 |
| 20260505191003 | 13 | 325 | 0.0 | 0.0 | 0.00 | 0.00 | 0.00 | 53 | 1008.6 |
| 20260505190503 | 14 | 325 | 0.0 | 0.0 | 0.00 | 0.00 | 0.00 | 51 | 1008.6 |